Regional Weather Roundup
Issued by NWS

Home | Current Version | Previous Version | Text Only | Print | Product List | Glossary Off
Versions: 1 2 3 4 5 6 7 8 9 10 11 12 13 14 15 16 17 18 19 20 21 22 23 24 25 26 27 28 29 30 31 32 33 34 35 36 37 38 39 40 41 42 43 44 45 46 47 48 49 50

000
ASUS43 KDMX 241107
RWRIA

WEATHER ROUNDUP FOR IOWA
NATIONAL WEATHER SERVICE DES MOINES IA
500 AM CST WED DEC 24 2014

NOTE: "FAIR" INDICATES FEW OR NO CLOUDS BELOW 12,000 FEET WITH NO
SIGNIFICANT WEATHER AND/OR OBSTRUCTIONS TO VISIBILITY.

* - THESE STATIONS ARE NOT NWS STATIONS...THUS NOT UNDER NWS
QUALITY CONTROL.  THEY ALSO DO NOT REPORT WEATHER SUCH
AS PRECIPITATION OR FOG.

IAZ001>003-012>014-020>022-031>034-043>046-241200-
   NORTHWEST IOWA

CITY           SKY/WX    TMP DP  RH WIND       PRES   REMARKS
CARROLL *      CLOUDY    34  32  93 NW17      29.82F WCI  23
CHEROKEE *     CLOUDY    32  30  93 N12G17    29.87S WCI  23
DENISON *      CLOUDY    34  34 100 NW18      29.84S WCI  23
LE MARS *      MIX PCPN  32  32 100 NW10G18   29.88F WCI  24
ORANGE CITY *  LGT SNOW  34  30  86 N15G21    29.86F WCI  24
SHELDON *      CLOUDY    32  32 100 NW15G21   29.84F WCI  22
SIOUX CITY     CLOUDY    33  30  88 NW22G29   29.88F WCI  21
SPENCER        CLOUDY    33  29  85 N17       29.85S WCI  22
STORM LAKE *   CLOUDY    32  30  93 N21       29.85R WCI  20
$$

IAZ055>058-069>071-079>083-090>094-241200-
   SOUTHWEST IOWA

CITY           SKY/WX    TMP DP  RH WIND       PRES   REMARKS
ATLANTIC *     CLOUDY    34  32  93 N15       29.83S WCI  24
AUDUBON *        N/A     34  28  80 NW12G20   29.83S WCI  25
CLARINDA *     CLOUDY    36  32  87 NW17      29.85S WCI  25
COUNCIL BLFS * LGT SNOW  32  32 100 NW16G25   29.85S WCI  21
CRESTON *      LGT SNOW  34  34 100 N20       29.78S WCI  22
HARLAN  *      CLOUDY    34  34 100 NW17G24   29.88S WCI  23
LAMONI         CLOUDY    33  32  96 N13G22    29.75F WCI  24
RED OAK *      MIX PCPN  36  32  87 N12       29.85S WCI  27
SHENANDOAH *   CLOUDY    36  34  93 NW13G20   29.86S WCI  27
$$

IAZ047>049-059>061-072>074-084-241200-
   CENTRAL IOWA

CITY           SKY/WX    TMP DP  RH WIND       PRES   REMARKS
AMES           CLOUDY    34  31  88 N15       29.77F WCI  24
ANKENY *       CLOUDY    34  34 100 NW14G20   29.76F WCI  24
CHARITON *     LGT SNOW  34  32  93 NW15      29.74F WCI  24
DES MOINES     LGT SNOW  34  32  92 N14       29.77F FOG     WCI  25
GRINNELL*      CLOUDY    34  32  93 NW14      29.72F WCI  24
KNOXVILLE *    CLOUDY    34  32  93 NW13      29.72F WCI  25
MARSHALLTOWN   CLOUDY    33  31  92 N15       29.72F WCI  23
PELLA *        RAIN      34  34 100 NW12      29.74F WCI  25
PERRY *        CLOUDY    34  34 100 N13       29.80S WCI  25
$$

IAZ004>006-015-016-023>025-035-036-241200-
   NORTH CENTRAL IOWA

CITY           SKY/WX    TMP DP  RH WIND       PRES   REMARKS
ALGONA *       CLOUDY    34  34 100 N13G22    29.82R WCI  25
CLARION *      MIX PCPN  34  34 100 N14G21    29.78F WCI  24
ESTHERVILLE    CLOUDY    31  30  96 N20G26    29.83S WCI  19
FORT DODGE *   CLOUDY    34  28  80 N9        29.81S WCI  26
MASON CITY     CLOUDY    33  31  92 NW16      29.78S WCI  23
FOREST CITY *  DRIZZLE   34  32  93 NW14G20   29.78F WCI  24
IOWA FALLS *   CLOUDY    34  32  93 N13       29.76F WCI  25
$$

IAZ007>011-017>019-026>030-037>042-050>054-066-241200-
   NORTHEAST IOWA

CITY           SKY/WX    TMP DP  RH WIND       PRES   REMARKS
CEDAR RAPIDS   CLOUDY    34  34 100 N10       29.68F WCI  26
CHARLES CITY * CLOUDY    34  34 100 NW13      29.74S WCI  25
CLINTON *      CLOUDY    36  32  87 NW3       29.71R
DECORAH *      CLOUDY    32  32 100 N10       29.69S WCI  24
DUBUQUE        FOG       33  33 100 N8        29.66F VSB 3/4 WCI  26
MONTICELLO *   CLOUDY    36  36 100 N8        29.68S WCI  29
OELWEIN *      CLOUDY    34  32  93 N12       29.70F WCI  25
WATERLOO       CLOUDY    33  32  96 NW12      29.71F WCI  24
$$

IAZ064-065-067-068-078-241200-
   EAST CENTRAL IOWA

CITY           SKY/WX    TMP DP  RH WIND       PRES   REMARKS
DAVENPORT      CLOUDY    35  32  88 NW7       29.68F WCI  29
IOWA CITY      CLOUDY    35  34  96 NW6       29.71F WCI  30
MT. PLEASANT * CLOUDY    34  34 100 NW13      29.69F WCI  25
MUSCATINE *    CLOUDY    37  34  87 NW6       29.70F WCI  33
QUAD CITIES    CLOUDY    36  33  89 N3        29.69R
$$

IAZ062-063-075>077-085>089-095>099-241200-
   SOUTHEAST IOWA

CITY           SKY/WX    TMP DP  RH WIND       PRES   REMARKS
BURLINGTON     CLOUDY    36  34  92 N9        29.68F WCI  29
FAIRFIELD *    CLOUDY    36  32  87 NW10      29.70F WCI  28
FORT MADISON * CLOUDY    37  36  93 N8        29.70S WCI  31
KEOKUK *       CLOUDY    36  34  93 NW6       29.69S WCI  31
OSKALOOSA *    CLOUDY    34  32  93 N12       29.72S WCI  25
CENTERVILLE *  CLOUDY    34  34 100 NW13      29.73S WCI  25
OTTUMWA        CLOUDY    34  33  96 NW14      29.71F WCI  25
WASHINGTON *   CLOUDY    36  36 100 N9        29.70S WCI  29
$$

ABBREVIATIONS USED IN REMARKS
   TC - TEMPERATURES IN CELSIUS
  WCI - WIND CHILL INDEX
   HX - HEAT INDEX
  VSB - VISIBILITY
$$



USA.gov is the U.S. government's official web portal to all federal, state and local government web resources and services.